Skip Page Navigation
NASA JPL Caltech
NASA Logo - Jet Propulsion Laboratory + View the NASA Portal
+ Center for Near-Earth Object Studies
JPL Home Earth Solar System Stars & Galaxies Technology
JPL Solar System Dynamics
BODIES ORBITS EPHEMERIDES TOOLS PHYSICAL DATA DISCOVERY FAQ SITE MAP
IMPORTANT: The SSD Announcement email list is now available. Major changes are coming in the near future, including possible hostname and/or URL changes. To be notified of such changes, subscribe to this email list.

Please visit this page for more details.


JPL Small-Body Database Browser
Search: [ help ]  
324318 (2006 FY11)
Classification: Main-belt Asteroid          SPK-ID: 2324318
Ephemeris | Orbit Diagram | Orbital Elements | Mission Design | Physical Parameters | Discovery Circumstances | Close-Approach Data ]

[ show orbit diagram ]
Orbital Elements at Epoch 2458600.5 (2019-Apr-27.0) TDB
Reference: JPL 15 (heliocentric ecliptic J2000)
 Element Value Uncertainty (1-sigma)   Units 
e .04289126793352151 6.3179e-08  
a 3.132222381176477 3.867e-08 au
q 2.997877391798064 1.979e-07 au
i 11.90925455273306 8.76e-06 deg
node 175.541685641927 2.7397e-05 deg
peri 70.55937037800837 9.9186e-05 deg
M 74.41506825060787 9.4587e-05 deg
tp 2458181.961230435714
(2018-Mar-04.46123044)
0.00053038 TDB
period 2024.777515969184
5.54
3.7497e-05
1.027e-07
d
yr
n .177797312129714 3.2926e-09 deg/d
Q 3.266567370554891 4.0329e-08 au
  Orbit Determination Parameters
   # obs. used (total)      160  
   data-arc span      8969 days (24.56 yr)  
   first obs. used      1995-04-02  
   last obs. used      2019-10-22  
   planetary ephem.      DE431  
   SB-pert. ephem.      SB431-N16  
   condition code      0  
   norm. resid. RMS      .55881  
   source      ORB  
   producer      Otto Matic  
   solution date      2019-Nov-08 09:10:40  

Additional Information
 Earth MOID = 2.01291 au 
 Jupiter MOID = 1.75234 au 
 T_jup = 3.178 
[ show covariance matrix ]

Ephemeris | Orbit Diagram | Orbital Elements | Mission Design | Physical Parameters | Discovery Circumstances | Close-Approach Data ]

Physical Parameter Table
Parameter Symbol Value Units Sigma Reference Notes
absolute magnitude H 15.8   n/a MPO455391  

324318 (2006 FY11)          Discovered 2006-Mar-23 by Spacewatch at Kitt Peak
Reference: 20120406/Numbers.arcLast Updated: 2012-04-09

[ show close-approach data ]
Ephemeris | Orbit Diagram | Orbital Elements | Mission Design | Physical Parameters | Discovery Circumstances | Close-Approach Data ]
ABOUT SSD CREDITS/AWARDS PRIVACY/COPYRIGHT GLOSSARY LINKS
FirstGov
(server date/time)  
NASA Home Page
Site Manager:   Ryan S. Park
Webmaster  Alan B. Chamberlin